Waarnemingen

Advertentie
Mijn weer
San Sebastian/Igueldo, Spanje (8027): temperatuur & dauwpunt: 12.10.2017 05:00:00 - 18.10.2017 05:00:00 (CEST)San Sebastian/Igueldo, Spanje (8027): windsnelheid: 12.10.2017 05:00:00 - 18.10.2017 05:00:00 (CEST)San Sebastian/Igueldo, Spanje (8027): windrichting: 12.10.2017 05:00:00 - 18.10.2017 05:00:00 (CEST)San Sebastian/Igueldo, Spanje (8027): luchtdruk: 12.10.2017 05:00:00 - 18.10.2017 05:00:00 (CEST)San Sebastian/Igueldo, Spanje (8027): zicht: 12.10.2017 05:00:00 - 18.10.2017 05:00:00 (CEST)
Datum & Tijd tt [°C] td [°C] ff [km/u] ff [kn] dd ppp [hPa] vv [km]
18.10.2017 05:00:00 - - - - - - -
18.10.2017 04:00:00 - - - - - - -
18.10.2017 03:00:00 - - - - - - -
18.10.2017 02:00:00 17,5 16,0 4 2 W 1013,5 5
18.10.2017 01:00:00 - - - - - - -
18.10.2017 00:00:00 - - - - - - -
17.10.2017 23:00:00 17,2 16,7 9 5 NNW 1014,7 1,0
17.10.2017 22:00:00 - - - - - - -
17.10.2017 21:00:00 - - - - - - -
17.10.2017 20:00:00 21,6 13,2 9 5 NNW 1014,2 10
17.10.2017 19:00:00 - - - - - - -
17.10.2017 18:00:00 - - - - - - -
17.10.2017 17:00:00 23,2 10,6 34 18 ZZW 1013,3 30
17.10.2017 16:00:00 - - - - - - -
17.10.2017 15:00:00 - - - - - - -
17.10.2017 14:00:00 22,6 10,7 44 24 Z 1015,0 45
17.10.2017 13:00:00 - - - - - - -
17.10.2017 12:00:00 - - - - - - -
17.10.2017 11:00:00 19,4 11,2 44 24 Z 1016,9 50
17.10.2017 10:00:00 - - - - - - -
17.10.2017 09:00:00 - - - - - - -
17.10.2017 08:00:00 20,2 10,9 35 19 ZZO 1017,2 50
17.10.2017 07:00:00 - - - - - - -
17.10.2017 06:00:00 - - - - - - -
17.10.2017 05:00:00 20,2 10,3 35 19 ZZW 1017,7 35
17.10.2017 04:00:00 - - - - - - -
17.10.2017 03:00:00 - - - - - - -
17.10.2017 02:00:00 15,8 14,8 8 4 Z 1021,7 20
17.10.2017 01:00:00 - - - - - - -
17.10.2017 00:00:00 - - - - - - -
16.10.2017 23:00:00 17,0 16,0 8 4 NNW 1023,3 20
16.10.2017 22:00:00 - - - - - - -
16.10.2017 21:00:00 - - - - - - -
16.10.2017 20:00:00 17,2 16,2 9 5 W 1023,3 8
16.10.2017 19:00:00 - - - - - - -
16.10.2017 18:00:00 - - - - - - -
16.10.2017 17:00:00 19,6 17,0 15 8 WNW 1022,8 8
16.10.2017 16:00:00 - - - - - - -
16.10.2017 15:00:00 - - - - - - -
16.10.2017 14:00:00 25,4 13,3 35 19 ZZW 1020,3 35
16.10.2017 13:00:00 - - - - - - -
16.10.2017 12:00:00 - - - - - - -
16.10.2017 11:00:00 22,4 12,6 35 19 ZW 1020,1 40
16.10.2017 10:00:00 - - - - - - -
16.10.2017 09:00:00 - - - - - - -
16.10.2017 08:00:00 21,4 12,3 46 25 ZZW 1018,4 30
16.10.2017 07:00:00 - - - - - - -
16.10.2017 06:00:00 - - - - - - -
16.10.2017 05:00:00 22,2 13,3 46 25 ZZW 1017,9 30
16.10.2017 04:00:00 - - - - - - -
16.10.2017 03:00:00 - - - - - - -
16.10.2017 02:00:00 23,4 13,3 59 32 ZZW 1018,5 30
16.10.2017 01:00:00 - - - - - - -
16.10.2017 00:00:00 - - - - - - -
15.10.2017 23:00:00 23,8 12,4 52 28 ZZW 1019,2 30
15.10.2017 22:00:00 - - - - - - -
15.10.2017 21:00:00 - - - - - - -
15.10.2017 20:00:00 24,0 13,5 39 21 ZZW 1019,6 30
15.10.2017 19:00:00 - - - - - - -
15.10.2017 18:00:00 - - - - - - -
15.10.2017 17:00:00 26,2 15,0 28 15 ZZW 1019,8 25
15.10.2017 16:00:00 - - - - - - -
15.10.2017 15:00:00 - - - - - - -
15.10.2017 14:00:00 24,6 14,4 42 23 ZW 1020,7 30
15.10.2017 13:00:00 - - - - - - -
15.10.2017 12:00:00 - - - - - - -
15.10.2017 11:00:00 21,2 13,9 39 21 ZW 1021,6 30
15.10.2017 10:00:00 - - - - - - -
15.10.2017 09:00:00 - - - - - - -
15.10.2017 08:00:00 20,6 13,6 39 21 ZZW 1021,0 25
15.10.2017 07:00:00 - - - - - - -
15.10.2017 06:00:00 - - - - - - -
15.10.2017 05:00:00 - - - - - - -
15.10.2017 04:00:00 - - - - - - -
15.10.2017 03:00:00 - - - - - - -
15.10.2017 02:00:00 22,0 14,1 34 18 ZZW 1021,4 30
15.10.2017 01:00:00 - - - - - - -
15.10.2017 00:00:00 - - - - - - -
14.10.2017 23:00:00 23,0 14,0 34 18 ZW 1021,4 25
14.10.2017 22:00:00 - - - - - - -
14.10.2017 21:00:00 - - - - - - -
14.10.2017 20:00:00 23,4 14,1 22 12 ZZW 1021,2 25
14.10.2017 19:00:00 - - - - - - -
14.10.2017 18:00:00 - - - - - - -
14.10.2017 17:00:00 25,8 14,9 5 3 Z 1020,9 25
14.10.2017 16:00:00 - - - - - - -
14.10.2017 15:00:00 - - - - - - -
14.10.2017 14:00:00 - - - - - - -
14.10.2017 13:00:00 - - - - - - -
14.10.2017 12:00:00 - - - - - - -
14.10.2017 11:00:00 16,8 -25,5 2 1 ZO 1024,3 20
14.10.2017 10:00:00 - - - - - - -
14.10.2017 09:00:00 - - - - - - -
14.10.2017 08:00:00 16,7 15,6 2 1 Z 1024,1 2,0
14.10.2017 07:00:00 - - - - - - -
14.10.2017 06:00:00 - - - - - - -
14.10.2017 05:00:00 16,7 15,4 4 2 ZO 1024,4 30
14.10.2017 04:00:00 - - - - - - -
14.10.2017 03:00:00 - - - - - - -
14.10.2017 02:00:00 16,5 15,5 18 10 ONO 1025,1 30
14.10.2017 01:00:00 - - - - - - -
14.10.2017 00:00:00 - - - - - - -
13.10.2017 23:00:00 16,8 16,8 9 5 N 1025,1 0,2
13.10.2017 22:00:00 - - - - - - -
13.10.2017 21:00:00 - - - - - - -
13.10.2017 20:00:00 16,8 16,2 13 7 N 1024,2 0,6
13.10.2017 19:00:00 - - - - - - -
13.10.2017 18:00:00 - - - - - - -
13.10.2017 17:00:00 18,8 17,8 18 10 N 1023,3 0,3
13.10.2017 16:00:00 - - - - - - -
13.10.2017 15:00:00 - - - - - - -
13.10.2017 14:00:00 21,4 14,8 5 3 NNO 1023,4 12
13.10.2017 13:00:00 - - - - - - -
13.10.2017 12:00:00 - - - - - - -
13.10.2017 11:00:00 21,8 12,4 15 8 ZW 1023,3 18
13.10.2017 10:00:00 - - - - - - -
13.10.2017 09:00:00 - - - - - - -
13.10.2017 08:00:00 19,6 11,4 18 10 ZZW 1022,7 15
13.10.2017 07:00:00 - - - - - - -
13.10.2017 06:00:00 - - - - - - -
13.10.2017 05:00:00 20,0 11,5 24 13 ZZW 1022,6 25
13.10.2017 04:00:00 - - - - - - -
13.10.2017 03:00:00 - - - - - - -
13.10.2017 02:00:00 18,2 11,7 16 9 ZZW 1023,8 25
13.10.2017 01:00:00 - - - - - - -
13.10.2017 00:00:00 - - - - - - -
12.10.2017 23:00:00 16,2 15,2 8 4 ZZW 1024,4 12
12.10.2017 22:00:00 - - - - - - -
12.10.2017 21:00:00 - - - - - - -
12.10.2017 20:00:00 17,6 15,2 5 3 ZO 1024,2 15
12.10.2017 19:00:00 - - - - - - -
12.10.2017 18:00:00 - - - - - - -
12.10.2017 17:00:00 18,8 14,7 8 4 ONO 1024,2 12
12.10.2017 16:00:00 - - - - - - -
12.10.2017 15:00:00 - - - - - - -
12.10.2017 14:00:00 17,2 13,7 5 3 NNO 1025,1 25
12.10.2017 13:00:00 - - - - - - -
12.10.2017 12:00:00 - - - - - - -
12.10.2017 11:00:00 14,8 13,3 4 2 ZZW 1025,3 25
12.10.2017 10:00:00 - - - - - - -
12.10.2017 09:00:00 - - - - - - -
12.10.2017 08:00:00 13,6 12,8 9 5 ZZW 1025,2 20
12.10.2017 07:00:00 - - - - - - -
12.10.2017 06:00:00 - - - - - - -
12.10.2017 05:00:00 13,8 13,0 5 3 Z 1024,9 30

tt = temperatuur
td = dauwpunt
ff = windsnelheid
dd = windrichting
ppp = luchtdruk
vv = zicht

Weerstations in de omgeving